| time (UTC) | temp C | wind direction | speed KPH | gust KPH | rain 1hr cm | rain 24hr cm | rain mn cm | humidity % | barometer mb |
| 20260508033039 | 9 | 300 | 0.0 | 0.0 | 0.00 | 0.00 | 0.00 | 49 | 1010.0 |
| 20260508031539 | 9 | 300 | 0.0 | 0.0 | 0.00 | 0.00 | 0.00 | 49 | 1010.0 |
| 20260508030039 | 10 | 300 | 0.0 | 0.0 | 0.00 | 0.00 | 0.00 | 52 | 1010.1 |
| 20260508024538 | 10 | 300 | 0.0 | 0.0 | 0.00 | 0.00 | 0.00 | 44 | 1010.0 |
| 20260508023037 | 10 | 300 | 0.0 | 0.0 | 0.00 | 0.00 | 0.00 | 49 | 1009.8 |
| 20260508021538 | 11 | 300 | 0.0 | 0.0 | 0.00 | 0.00 | 0.00 | 54 | 1009.7 |
| 20260508020039 | 11 | 300 | 0.0 | 0.0 | 0.00 | 0.00 | 0.00 | 49 | 1009.6 |
| 20260508014536 | 13 | 300 | 0.0 | 0.0 | 0.00 | 0.00 | 0.00 | 47 | 1009.4 |
| 20260508013037 | 13 | 300 | 0.0 | 4.8 | 0.00 | 0.00 | 0.00 | 45 | 1009.4 |
| 20260508011535 | 14 | 300 | 3.2 | 6.4 | 0.00 | 0.00 | 0.00 | 40 | 1009.2 |
| 20260508010034 | 15 | 301 | 3.2 | 9.7 | 0.00 | 0.00 | 0.00 | 41 | 1009.0 |
| 20260508004533 | 15 | 304 | 0.0 | 11.3 | 0.00 | 0.00 | 0.00 | 36 | 1008.9 |
| 20260508003033 | 15 | 285 | 6.4 | 11.3 | 0.00 | 0.00 | 0.00 | 38 | 1008.8 |
| 20260508001533 | 16 | 281 | 6.4 | 17.7 | 0.00 | 0.00 | 0.00 | 37 | 1008.8 |
| 20260508000031 | 16 | 263 | 9.7 | 17.7 | 0.00 | 0.00 | 0.00 | 35 | 1008.9 |
| 20260507234539 | 16 | 269 | 11.3 | 17.7 | 0.00 | 0.00 | 0.00 | 35 | 1009.0 |
| 20260507233030 | 16 | 303 | 8.0 | 19.3 | 0.00 | 0.00 | 0.00 | 31 | 1009.0 |
| 20260507231527 | 16 | 230 | 9.7 | 25.7 | 0.00 | 0.00 | 0.00 | 30 | 1009.1 |
| 20260507230026 | 16 | 246 | 9.7 | 27.4 | 0.00 | 0.00 | 0.00 | 34 | 1009.1 |
| 20260507224527 | 16 | 287 | 6.4 | 20.9 | 0.00 | 0.00 | 0.00 | 33 | 1009.2 |
| 20260507223024 | 17 | 241 | 14.5 | 22.5 | 0.00 | 0.00 | 0.00 | 34 | 1009.3 |
| 20260507221523 | 17 | 252 | 14.5 | 29.0 | 0.00 | 0.00 | 0.00 | 34 | 1009.2 |
| 20260507220021 | 16 | 257 | 6.4 | 16.1 | 0.00 | 0.00 | 0.00 | 35 | 1009.4 |
| 20260507214524 | 16 | 238 | 8.0 | 25.7 | 0.00 | 0.00 | 0.00 | 28 | 1009.5 |
| 20260507213020 | 16 | 225 | 3.2 | 14.5 | 0.00 | 0.00 | 0.00 | 28 | 1009.6 |
| 20260507211517 | 16 | 244 | 6.4 | 24.1 | 0.00 | 0.00 | 0.00 | 29 | 1009.5 |
| 20260507210016 | 16 | 265 | 11.3 | 25.7 | 0.00 | 0.00 | 0.00 | 31 | 1009.6 |
| 20260507204514 | 16 | 244 | 16.1 | 27.4 | 0.00 | 0.00 | 0.00 | 30 | 1009.7 |
| 20260507203014 | 16 | 229 | 8.0 | 27.4 | 0.00 | 0.00 | 0.00 | 33 | 1009.9 |
| 20260507201511 | 16 | 233 | 6.4 | 20.9 | 0.00 | 0.00 | 0.00 | 29 | 1010.0 |
| 20260507200011 | 16 | 262 | 12.9 | 37.0 | 0.00 | 0.00 | 0.00 | 33 | 1010.3 |
| 20260507194508 | 16 | 270 | 16.1 | 29.0 | 0.00 | 0.00 | 0.00 | 35 | 1010.4 |
| 20260507193005 | 16 | 246 | 14.5 | 30.6 | 0.00 | 0.00 | 0.00 | 30 | 1010.4 |
| 20260507191506 | 16 | 250 | 4.8 | 16.1 | 0.00 | 0.00 | 0.00 | 31 | 1010.5 |
| 20260507190005 | 16 | 249 | 8.0 | 27.4 | 0.00 | 0.00 | 0.00 | 31 | 1010.7 |
| 20260507184604 | 16 | 346 | 0.0 | 12.9 | 0.00 | 0.00 | 0.00 | 33 | 1010.6 |
| 20260507183100 | 15 | 309 | 8.0 | 12.9 | 0.00 | 0.00 | 0.00 | 38 | 1010.7 |
| 20260507181558 | 16 | 251 | 9.7 | 16.1 | 0.00 | 0.00 | 0.00 | 34 | 1010.8 |
| 20260507180054 | 15 | 318 | 1.6 | 11.3 | 0.00 | 0.00 | 0.00 | 36 | 1010.9 |
| 20260507174601 | 15 | 273 | 0.0 | 14.5 | 0.00 | 0.00 | 0.00 | 34 | 1011.1 |
| 20260507173051 | 15 | 290 | 0.0 | 6.4 | 0.00 | 0.00 | 0.00 | 33 | 1011.3 |
| 20260507171600 | 15 | 280 | 0.0 | 8.0 | 0.00 | 0.00 | 0.00 | 37 | 1011.5 |
| 20260507170050 | 15 | 345 | 0.0 | 0.0 | 0.00 | 0.00 | 0.00 | 35 | 1011.6 |
| 20260507164544 | 14 | 325 | 0.0 | 8.0 | 0.00 | 0.00 | 0.00 | 40 | 1011.7 |
| 20260507163040 | 13 | 325 | 0.0 | 11.3 | 0.00 | 0.00 | 0.00 | 42 | 1011.8 |
| 20260507161538 | 12 | 338 | 1.6 | 14.5 | 0.00 | 0.00 | 0.00 | 45 | 1011.7 |
| 20260507160033 | 11 | 355 | 8.0 | 16.1 | 0.00 | 0.00 | 0.00 | 43 | 1011.8 |
| 20260507154533 | 11 | 13 | 8.0 | 17.7 | 0.00 | 0.00 | 0.00 | 48 | 1011.9 |
| 20260507153027 | 10 | 5 | 9.7 | 19.3 | 0.00 | 0.00 | 0.00 | 47 | 1011.9 |
| 20260507151522 | 10 | 20 | 12.9 | 22.5 | 0.00 | 0.00 | 0.00 | 50 | 1011.8 |
| 20260507150020 | 9 | 10 | 8.0 | 16.1 | 0.00 | 0.00 | 0.00 | 51 | 1011.9 |
| 20260507144517 | 8 | 360 | 9.7 | 16.1 | 0.00 | 0.00 | 0.00 | 54 | 1011.9 |
| 20260507143011 | 8 | 360 | 8.0 | 12.9 | 0.00 | 0.00 | 0.00 | 55 | 1012.0 |
| 20260507141508 | 7 | 348 | 6.4 | 11.3 | 0.00 | 0.00 | 0.00 | 56 | 1012.1 |
| 20260507140006 | 6 | 348 | 0.0 | 0.0 | 0.00 | 0.00 | 0.00 | 59 | 1012.1 |
| 20260507134601 | 6 | 348 | 0.0 | 11.3 | 0.00 | 0.00 | 0.00 | 61 | 1012.1 |
| 20260507133058 | 5 | 351 | 6.4 | 0.0 | 0.00 | 0.00 | 0.00 | 63 | 1012.4 |
| 20260507131558 | 5 | 355 | 6.4 | 11.3 | 0.00 | 0.00 | 0.00 | 65 | 1012.4 |
| 20260507130109 | 5 | 331 | 6.4 | 16.1 | 0.00 | 0.00 | 0.00 | 67 | 1012.4 |
| 20260507124603 | 5 | 300 | 9.7 | 19.3 | 0.00 | 0.00 | 0.00 | 67 | 1012.7 |
| 20260507123053 | 5 | 17 | 0.0 | 1.6 | 0.00 | 0.00 | 0.00 | 65 | 1012.1 |
| 20260507121550 | 4 | 20 | 0.0 | 0.0 | 0.00 | 0.00 | 0.00 | 66 | 1011.5 |
| 20260507120049 | 3 | 20 | 0.0 | 0.0 | 0.00 | 0.00 | 0.00 | 69 | 1011.4 |
| 20260507114555 | 2 | 20 | 0.0 | 0.0 | 0.00 | 0.00 | 0.00 | 68 | 1011.4 |
| 20260507113047 | 2 | 20 | 0.0 | 0.0 | 0.00 | 0.00 | 0.00 | 68 | 1011.5 |
| 20260507111550 | 2 | 20 | 0.0 | 0.0 | 0.00 | 0.00 | 0.00 | 67 | 1011.5 |
| 20260507110044 | 3 | 20 | 0.0 | 0.0 | 0.00 | 0.00 | 0.00 | 66 | 1011.9 |
| 20260507104542 | 3 | 20 | 0.0 | 1.6 | 0.00 | 0.00 | 0.00 | 66 | 1012.1 |
| 20260507103043 | 3 | 20 | 0.0 | 0.0 | 0.00 | 0.00 | 0.00 | 65 | 1012.4 |
| 20260507101547 | 3 | 20 | 0.0 | 0.0 | 0.00 | 0.00 | 0.00 | 66 | 1012.1 |
| 20260507100043 | 3 | 20 | 0.0 | 0.0 | 0.00 | 0.00 | 0.00 | 67 | 1012.4 |
| 20260507094545 | 3 | 20 | 0.0 | 0.0 | 0.00 | 0.00 | 0.00 | 69 | 1012.3 |
| 20260507093042 | 3 | 20 | 0.0 | 0.0 | 0.00 | 0.00 | 0.00 | 66 | 1012.6 |
| 20260507091539 | 3 | 20 | 0.0 | 0.0 | 0.00 | 0.00 | 0.00 | 64 | 1012.6 |
| 20260507090036 | 4 | 20 | 0.0 | 0.0 | 0.00 | 0.00 | 0.00 | 64 | 1012.9 |
| 20260507084535 | 4 | 20 | 0.0 | 0.0 | 0.00 | 0.00 | 0.00 | 66 | 1013.3 |
| 20260507083028 | 4 | 20 | 0.0 | 0.0 | 0.00 | 0.00 | 0.00 | 66 | 1013.5 |
| 20260507081527 | 4 | 24 | 1.6 | 9.7 | 0.00 | 0.00 | 0.00 | 65 | 1013.8 |
| 20260507080024 | 3 | 355 | 0.0 | 0.0 | 0.00 | 0.00 | 0.00 | 65 | 1013.7 |
| 20260507074524 | 2 | 355 | 0.0 | 0.0 | 0.00 | 0.00 | 0.00 | 67 | 1013.8 |
| 20260507073025 | 2 | 355 | 0.0 | 0.0 | 0.00 | 0.00 | 0.00 | 67 | 1013.7 |
| 20260507071522 | 2 | 355 | 0.0 | 0.0 | 0.00 | 0.00 | 0.00 | 66 | 1013.9 |
| 20260507070020 | 2 | 355 | 0.0 | 0.0 | 0.00 | 0.00 | 0.00 | 66 | 1014.1 |
| 20260507064519 | 3 | 355 | 0.0 | 0.0 | 0.00 | 0.00 | 0.00 | 64 | 1014.1 |
| 20260507063018 | 3 | 355 | 0.0 | 0.0 | 0.00 | 0.00 | 0.00 | 64 | 1014.1 |
| 20260507061517 | 2 | 360 | 0.0 | 0.0 | 0.00 | 0.00 | 0.00 | 66 | 1014.1 |
| 20260507060023 | 2 | 360 | 0.0 | 0.0 | 0.00 | 0.00 | 0.00 | 66 | 1014.2 |
| 20260507054514 | 2 | 360 | 0.0 | 0.0 | 0.00 | 0.00 | 0.00 | 66 | 1014.4 |
| 20260507053011 | 2 | 360 | 0.0 | 0.0 | 0.00 | 0.00 | 0.00 | 65 | 1014.6 |
| 20260507051508 | 3 | 360 | 0.0 | 0.0 | 0.00 | 0.00 | 0.00 | 67 | 1014.7 |
| 20260507050006 | 3 | 360 | 0.0 | 0.0 | 0.00 | 0.00 | 0.00 | 66 | 1014.7 |
| 20260507044504 | 4 | 360 | 0.0 | 0.0 | 0.00 | 0.00 | 0.00 | 62 | 1014.8 |
| 20260507043002 | 5 | 360 | 0.0 | 0.0 | 0.00 | 0.00 | 0.00 | 60 | 1014.9 |
| 20260507041501 | 5 | 26 | 0.0 | 0.0 | 0.00 | 0.00 | 0.00 | 60 | 1015.0 |
| 20260507040100 | 5 | 26 | 0.0 | 0.0 | 0.00 | 0.00 | 0.00 | 59 | 1015.1 |
| 20260507034614 | 6 | 26 | 0.0 | 9.7 | 0.00 | 0.00 | 0.00 | 56 | 1015.2 |